Flag for Canada Weather past 2 weeks in Barrie, Ontario, Canada

Now
1 °F

Clear.


Feels Like: -6 °F
Forecast: 0 / 31 °F
Wind: 3 mph from Southwest

Location: Borden

Current Time: Mar 3, 2015 at 12:05:58 AM

Latest Report: Mar 2, 2015 at 11:00 PM


Visibility: 9 mi

Pressure: 30.42 "Hg

Humidity: 100%

Dew point: 1 °F

Location of BarrieLocation

Historic Weather in Barrie — Graph

°F

Barrie temperature yesterday

Maximum temperature yesterday: 25 °F (at 12:00 PM)
Minimum temperature yesterday: 1 °F (at 11:00 PM)
Average temperature yesterday: 19 °F

Past Weeks' High & Low Weather Summary

 TemperatureHumidityPressure
High27 °F (Mar 1, 2:00 PM)100% (Feb 21, 7:00 PM)30.77 "Hg (Feb 21, 7:00 PM)
Low-33 °F (Feb 16, 7:00 AM)24% (Feb 17, 2:00 PM)29.55 "Hg (Feb 25, 1:00 AM)
Average4 °F67%30.19 "Hg
* Reported Feb 15 11:00 PM — Mar 2 11:00 PM, Barrie, Weather by CustomWeather, © 2015

Note: Actual official high and low records may vary slightly from our data, if they occured in-between our weather recording intervals... More about our weather records

Advertising

Barrie weather history for previous 24 hours

 ConditionsComfort  
Time TempWeatherWind HumidityBarometerVisibility
11:00 PM
Mon, Mar 2
1 °FClear.3 mph100%30.42 "Hg9 mi
10:00 PM5 °FClear.No wind92%30.42 "Hg9 mi
9:00 PM7 °FClear.5 mph85%30.43 "Hg9 mi
8:00 PM9 °FClear.3 mph85%30.42 "Hg9 mi
7:00 PM18 °FClear.3 mph62%30.42 "Hg9 mi
6:00 PM21 °FPassing clouds.7 mph58%30.41 "Hg9 mi
5:00 PM23 °FScattered clouds.13 mph54%30.39 "Hg9 mi
4:00 PM23 °FSunny.15 mph50%30.38 "Hg9 mi
3:00 PM23 °FPassing clouds.16 mph46%30.36 "Hg9 mi
2:00 PM23 °FPassing clouds.13 mph50%30.33 "Hg9 mi
1:00 PM23 °FPassing clouds.22 mph46%30.32 "Hg9 mi
12:00 PM25 °FPartly sunny.22 mph50%30.30 "Hg9 mi
11:00 AM23 °FOvercast.15 mph58%30.27 "Hg9 mi
10:00 AM23 °FPassing clouds.21 mph63%30.25 "Hg9 mi
9:00 AM23 °FPartly sunny.14 mph68%30.24 "Hg9 mi
8:58 AM23 °FPartly sunny.13 mph68%30.19 "Hg9 mi
8:00 AM21 °FMostly cloudy.9 mph74%30.21 "Hg9 mi
7:00 AM21 °FPartly sunny.13 mph68%30.18 "Hg9 mi
6:04 AM21 °FPassing clouds.8 mph80%30.10 "Hg9 mi
6:00 AM21 °FPassing clouds.9 mph80%30.14 "Hg9 mi
5:00 AM21 °FMostly cloudy.12 mph80%30.11 "Hg9 mi
4:00 AM21 °FOvercast.9 mph80%30.10 "Hg9 mi
3:00 AM21 °FOvercast.No wind80%30.11 "Hg9 mi
2:00 AM19 °FOvercast.5 mph79%30.12 "Hg9 mi
1:00 AM21 °FOvercast.9 mph74%30.12 "Hg9 mi
12:00 AM19 °FOvercast.3 mph73%30.14 "Hg9 mi
Weather by CustomWeather, © 2015

See weather overviewHow to use our weather pages